| time (UTC) | temp C | wind direction | speed KPH | gust KPH | rain 1hr cm | rain 24hr cm | rain mn cm | humidity % | barometer mb |
| 20260509091728 | 11 | 22 | 3.2 | 3.2 | 0.00 | 0.00 | 0.00 | 87 | 1006.3 |
| 20260509091224 | 11 | 287 | 1.6 | 3.2 | 0.00 | 0.00 | 0.00 | 87 | 1006.4 |
| 20260509090722 | 11 | 232 | 6.4 | 9.7 | 0.00 | 0.00 | 0.00 | 87 | 1006.6 |
| 20260509090219 | 11 | 164 | 3.2 | 3.2 | 0.00 | 0.00 | 0.00 | 87 | 1006.4 |
| 20260509085717 | 11 | 259 | 1.6 | 3.2 | 0.00 | 0.00 | 0.00 | 87 | 1006.6 |
| 20260509085214 | 11 | 218 | 1.6 | 3.2 | 0.00 | 0.00 | 0.00 | 86 | 1006.5 |
| 20260509084710 | 11 | 39 | 0.0 | 1.6 | 0.00 | 0.00 | 0.00 | 86 | 1006.6 |
| 20260509084207 | 11 | 238 | 0.0 | 1.6 | 0.00 | 0.00 | 0.00 | 86 | 1006.6 |
| 20260509083705 | 11 | 189 | 3.2 | 3.2 | 0.00 | 0.00 | 0.00 | 85 | 1006.6 |
| 20260509083201 | 11 | 26 | 0.0 | 0.0 | 0.00 | 0.00 | 0.00 | 85 | 1006.5 |
| 20260509082658 | 11 | 346 | 1.6 | 1.6 | 0.00 | 0.00 | 0.00 | 85 | 1006.9 |
| 20260509082154 | 11 | 189 | 4.8 | 8.0 | 0.00 | 0.00 | 0.00 | 84 | 1006.9 |
| 20260509081651 | 11 | 37 | 4.8 | 9.7 | 0.00 | 0.00 | 0.00 | 84 | 1007.0 |
| 20260509081149 | 11 | 239 | 3.2 | 8.0 | 0.00 | 0.00 | 0.00 | 84 | 1007.4 |
| 20260509080647 | 11 | 186 | 4.8 | 4.8 | 0.00 | 0.00 | 0.00 | 83 | 1007.4 |
| 20260509080144 | 11 | 277 | 1.6 | 1.6 | 0.00 | 0.00 | 0.00 | 82 | 1007.4 |
| 20260509075643 | 11 | 23 | 1.6 | 1.6 | 0.00 | 0.00 | 0.00 | 82 | 1007.4 |
| 20260509075140 | 11 | 40 | 0.0 | 0.0 | 0.00 | 0.00 | 0.00 | 81 | 1007.4 |
| 20260509074637 | 11 | 240 | 8.0 | 9.7 | 0.00 | 0.00 | 0.00 | 80 | 1007.6 |
| 20260509074133 | 11 | 19 | 0.0 | 0.0 | 0.00 | 0.00 | 0.00 | 79 | 1007.7 |
| 20260509073630 | 11 | 217 | 3.2 | 8.0 | 0.00 | 0.00 | 0.00 | 77 | 1007.5 |
| 20260509073126 | 11 | 211 | 4.8 | 8.0 | 0.00 | 0.00 | 0.00 | 76 | 1007.6 |
| 20260509072623 | 11 | 161 | 3.2 | 3.2 | 0.00 | 0.00 | 0.00 | 75 | 1007.7 |
| 20260509072120 | 11 | 203 | 3.2 | 3.2 | 0.00 | 0.00 | 0.00 | 73 | 1007.8 |
| 20260509071616 | 11 | 228 | 9.7 | 11.3 | 0.00 | 0.00 | 0.00 | 71 | 1007.9 |
| 20260509071114 | 11 | 31 | 0.0 | 1.6 | 0.00 | 0.00 | 0.00 | 69 | 1007.8 |
| 20260509070611 | 11 | 198 | 1.6 | 3.2 | 0.00 | 0.00 | 0.00 | 66 | 1008.1 |
| 20260509070107 | 11 | 193 | 1.6 | 3.2 | 0.00 | 0.00 | 0.00 | 64 | 1007.9 |
| 20260509065603 | 11 | 359 | 1.6 | 1.6 | 0.00 | 0.00 | 0.00 | 62 | 1007.9 |
| 20260509065059 | 11 | 34 | 0.0 | 1.6 | 0.00 | 0.00 | 0.00 | 59 | 1008.1 |
| 20260509064556 | 11 | 287 | 3.2 | 3.2 | 0.00 | 0.00 | 0.00 | 58 | 1007.8 |
| 20260509064054 | 11 | 26 | 1.6 | 1.6 | 0.00 | 0.00 | 0.00 | 55 | 1008.1 |
| 20260509063550 | 11 | 221 | 1.6 | 3.2 | 0.00 | 0.00 | 0.00 | 52 | 1008.2 |
| 20260509063047 | 11 | 11 | 0.0 | 1.6 | 0.00 | 0.00 | 0.00 | 50 | 1008.3 |
| 20260509062544 | 11 | 314 | 1.6 | 1.6 | 0.00 | 0.00 | 0.00 | 49 | 1008.2 |
| 20260509062042 | 11 | 44 | 0.0 | 1.6 | 0.00 | 0.00 | 0.00 | 47 | 1008.4 |
| 20260509061538 | 11 | 32 | 0.0 | 0.0 | 0.00 | 0.00 | 0.00 | 45 | 1008.4 |
| 20260509061036 | 11 | 226 | 3.2 | 3.2 | 0.00 | 0.00 | 0.00 | 44 | 1008.3 |
| 20260509060533 | 11 | 345 | 0.0 | 1.6 | 0.00 | 0.00 | 0.00 | 43 | 1008.5 |
| 20260509060023 | 11 | 31 | 3.2 | 4.8 | 0.00 | 0.00 | 0.00 | 42 | 1008.4 |
| 20260509055518 | 11 | 43 | 0.0 | 0.0 | 0.00 | 0.00 | 0.00 | 41 | 1008.4 |
| 20260509055015 | 11 | 45 | 0.0 | 1.6 | 0.00 | 0.00 | 0.00 | 41 | 1008.5 |
| 20260509054512 | 11 | 55 | 0.0 | 1.6 | 0.00 | 0.00 | 0.00 | 40 | 1008.7 |
| 20260509054010 | 11 | 47 | 0.0 | 1.6 | 0.00 | 0.00 | 0.00 | 41 | 1008.8 |
| 20260509053508 | 11 | 48 | 0.0 | 0.0 | 0.00 | 0.00 | 0.00 | 40 | 1008.7 |
| 20260509053005 | 11 | 237 | 1.6 | 3.2 | 0.00 | 0.00 | 0.00 | 40 | 1008.7 |
| 20260509052502 | 11 | 76 | 0.0 | 0.0 | 0.00 | 0.00 | 0.00 | 40 | 1008.9 |
| 20260509052000 | 11 | 277 | 1.6 | 1.6 | 0.00 | 0.00 | 0.00 | 39 | 1008.8 |
| 20260509051458 | 11 | 53 | 0.0 | 1.6 | 0.00 | 0.00 | 0.00 | 39 | 1008.6 |
| 20260509050954 | 11 | 353 | 0.0 | 1.6 | 0.00 | 0.00 | 0.00 | 39 | 1008.6 |
| 20260509050451 | 11 | 55 | 0.0 | 0.0 | 0.00 | 0.00 | 0.00 | 39 | 1008.8 |
| 20260509045947 | 10 | 55 | 0.0 | 0.0 | 0.00 | 0.00 | 0.00 | 39 | 1008.6 |
| 20260509045445 | 10 | 32 | 0.0 | 0.0 | 0.00 | 0.00 | 0.00 | 39 | 1008.7 |
| 20260509044942 | 10 | 38 | 0.0 | 0.0 | 0.00 | 0.00 | 0.00 | 39 | 1008.6 |
| 20260509044440 | 10 | 43 | 0.0 | 0.0 | 0.00 | 0.00 | 0.00 | 39 | 1008.8 |
| 20260509043937 | 10 | 49 | 0.0 | 0.0 | 0.00 | 0.00 | 0.00 | 39 | 1008.9 |
| 20260509043432 | 10 | 58 | 0.0 | 0.0 | 0.00 | 0.00 | 0.00 | 39 | 1008.7 |
| 20260509042928 | 10 | 48 | 0.0 | 0.0 | 0.00 | 0.00 | 0.00 | 38 | 1008.9 |
| 20260509042426 | 10 | 55 | 1.6 | 1.6 | 0.00 | 0.00 | 0.00 | 38 | 1009.0 |
| 20260509041921 | 10 | 41 | 0.0 | 0.0 | 0.00 | 0.00 | 0.00 | 38 | 1008.8 |
| 20260509041418 | 10 | 60 | 1.6 | 1.6 | 0.00 | 0.00 | 0.00 | 38 | 1009.2 |
| 20260509040916 | 10 | 45 | 0.0 | 0.0 | 0.00 | 0.00 | 0.00 | 38 | 1009.1 |
| 20260509040414 | 10 | 46 | 0.0 | 0.0 | 0.00 | 0.00 | 0.00 | 39 | 1009.0 |
| 20260509035911 | 10 | 45 | 0.0 | 0.0 | 0.00 | 0.00 | 0.00 | 40 | 1009.3 |
| 20260509035408 | 10 | 48 | 0.0 | 0.0 | 0.00 | 0.00 | 0.00 | 39 | 1009.4 |
| 20260509034904 | 10 | 51 | 0.0 | 0.0 | 0.00 | 0.00 | 0.00 | 39 | 1009.3 |
| 20260509034402 | 10 | 46 | 0.0 | 0.0 | 0.00 | 0.00 | 0.00 | 38 | 1009.5 |
| 20260509033859 | 10 | 43 | 0.0 | 0.0 | 0.00 | 0.00 | 0.00 | 38 | 1009.6 |
| 20260509033356 | 10 | 46 | 0.0 | 0.0 | 0.00 | 0.00 | 0.00 | 37 | 1009.4 |
| 20260509032852 | 10 | 64 | 0.0 | 1.6 | 0.00 | 0.00 | 0.00 | 37 | 1009.5 |
| 20260509032350 | 10 | 52 | 0.0 | 0.0 | 0.00 | 0.00 | 0.00 | 37 | 1009.6 |
| 20260509031848 | 10 | 45 | 0.0 | 0.0 | 0.00 | 0.00 | 0.00 | 37 | 1009.6 |
| 20260509031344 | 10 | 50 | 0.0 | 0.0 | 0.00 | 0.00 | 0.00 | 37 | 1009.7 |
| 20260509030842 | 10 | 47 | 0.0 | 0.0 | 0.00 | 0.00 | 0.00 | 37 | 1009.8 |
| 20260509030339 | 10 | 53 | 0.0 | 0.0 | 0.00 | 0.00 | 0.00 | 36 | 1009.8 |
| 20260509025831 | 10 | 46 | 0.0 | 0.0 | 0.00 | 0.00 | 0.00 | 38 | 1009.7 |
| 20260509025326 | 10 | 54 | 0.0 | 0.0 | 0.00 | 0.00 | 0.00 | 37 | 1010.0 |
| 20260509024822 | 10 | 48 | 0.0 | 0.0 | 0.00 | 0.00 | 0.00 | 39 | 1009.9 |
| 20260509024318 | 10 | 47 | 0.0 | 0.0 | 0.00 | 0.00 | 0.00 | 40 | 1010.1 |
| 20260509023816 | 10 | 64 | 0.0 | 1.6 | 0.00 | 0.00 | 0.00 | 39 | 1010.0 |
| 20260509023313 | 10 | 47 | 0.0 | 0.0 | 0.00 | 0.00 | 0.00 | 40 | 1010.1 |
| 20260509022809 | 10 | 47 | 0.0 | 0.0 | 0.00 | 0.00 | 0.00 | 39 | 1010.1 |
| 20260509022307 | 10 | 46 | 0.0 | 0.0 | 0.00 | 0.00 | 0.00 | 42 | 1010.2 |
| 20260509021803 | 10 | 45 | 0.0 | 0.0 | 0.00 | 0.00 | 0.00 | 40 | 1010.1 |
| 20260509021301 | 11 | 44 | 0.0 | 0.0 | 0.00 | 0.00 | 0.00 | 39 | 1010.3 |
| 20260509020758 | 11 | 39 | 0.0 | 1.6 | 0.00 | 0.00 | 0.00 | 38 | 1010.1 |
| 20260509020256 | 11 | 41 | 0.0 | 0.0 | 0.00 | 0.00 | 0.00 | 38 | 1010.0 |
| 20260509015753 | 11 | 47 | 0.0 | 0.0 | 0.00 | 0.00 | 0.00 | 38 | 1010.0 |
| 20260509015251 | 11 | 46 | 0.0 | 0.0 | 0.00 | 0.00 | 0.00 | 38 | 1009.9 |
| 20260509014747 | 11 | 47 | 0.0 | 0.0 | 0.00 | 0.00 | 0.00 | 38 | 1010.0 |
| 20260509014245 | 11 | 53 | 0.0 | 0.0 | 0.00 | 0.00 | 0.00 | 37 | 1009.9 |
| 20260509013741 | 11 | 50 | 0.0 | 0.0 | 0.00 | 0.00 | 0.00 | 38 | 1009.8 |
| 20260509013237 | 11 | 48 | 0.0 | 0.0 | 0.00 | 0.00 | 0.00 | 38 | 1010.0 |
| 20260509012734 | 11 | 48 | 0.0 | 0.0 | 0.00 | 0.00 | 0.00 | 38 | 1009.8 |
| 20260509012230 | 11 | 48 | 0.0 | 0.0 | 0.00 | 0.00 | 0.00 | 37 | 1010.0 |
| 20260509011728 | 11 | 53 | 0.0 | 1.6 | 0.00 | 0.00 | 0.00 | 38 | 1009.9 |
| 20260509011225 | 12 | 47 | 0.0 | 0.0 | 0.00 | 0.00 | 0.00 | 38 | 1010.0 |
| 20260509010723 | 12 | 47 | 0.0 | 0.0 | 0.00 | 0.00 | 0.00 | 38 | 1010.0 |
| 20260509010219 | 12 | 47 | 0.0 | 0.0 | 0.00 | 0.00 | 0.00 | 38 | 1009.8 |
| 20260509005717 | 12 | 45 | 0.0 | 0.0 | 0.00 | 0.00 | 0.00 | 37 | 1009.9 |
| 20260509005214 | 13 | 45 | 0.0 | 0.0 | 0.00 | 0.00 | 0.00 | 37 | 1009.9 |
| 20260509004714 | 13 | 44 | 0.0 | 0.0 | 0.00 | 0.00 | 0.00 | 36 | 1009.9 |
| 20260509004212 | 13 | 43 | 0.0 | 0.0 | 0.00 | 0.00 | 0.00 | 34 | 1009.9 |
| 20260509003710 | 14 | 58 | 0.0 | 1.6 | 0.00 | 0.00 | 0.00 | 34 | 1009.8 |
| 20260509003207 | 15 | 46 | 0.0 | 0.0 | 0.00 | 0.00 | 0.00 | 33 | 1010.0 |
| 20260509002704 | 15 | 39 | 0.0 | 0.0 | 0.00 | 0.00 | 0.00 | 32 | 1010.1 |
| 20260509002201 | 15 | 218 | 3.2 | 3.2 | 0.00 | 0.00 | 0.00 | 30 | 1010.0 |
| 20260509001659 | 15 | 4 | 1.6 | 1.6 | 0.00 | 0.00 | 0.00 | 31 | 1010.1 |
| 20260509001155 | 15 | 87 | 1.6 | 1.6 | 0.00 | 0.00 | 0.00 | 31 | 1010.2 |
| 20260509000653 | 15 | 247 | 4.8 | 8.0 | 0.00 | 0.00 | 0.00 | 30 | 1010.2 |
| 20260509000150 | 15 | 206 | 1.6 | 3.2 | 0.00 | 0.00 | 0.00 | 30 | 1010.3 |
| 20260508235647 | 15 | 43 | 0.0 | 0.0 | 0.00 | 0.00 | 0.00 | 30 | 1010.4 |
| 20260508235143 | 15 | 239 | 6.4 | 8.0 | 0.00 | 0.00 | 0.00 | 29 | 1010.3 |
| 20260508234640 | 15 | 217 | 4.8 | 8.0 | 0.00 | 0.00 | 0.00 | 30 | 1010.5 |
| 20260508234136 | 16 | 256 | 3.2 | 4.8 | 0.00 | 0.00 | 0.00 | 29 | 1010.4 |
| 20260508233631 | 15 | 220 | 1.6 | 3.2 | 0.00 | 0.00 | 0.00 | 29 | 1010.6 |
| 20260508233128 | 16 | 269 | 9.7 | 12.9 | 0.00 | 0.00 | 0.00 | 29 | 1010.7 |
| 20260508232625 | 16 | 298 | 4.8 | 8.0 | 0.00 | 0.00 | 0.00 | 29 | 1010.6 |
| 20260508232122 | 16 | 209 | 6.4 | 8.0 | 0.00 | 0.00 | 0.00 | 29 | 1010.6 |
| 20260508231620 | 16 | 235 | 4.8 | 4.8 | 0.00 | 0.00 | 0.00 | 29 | 1010.6 |
| 20260508231116 | 16 | 318 | 4.8 | 4.8 | 0.00 | 0.00 | 0.00 | 28 | 1010.7 |
| 20260508230613 | 16 | 215 | 8.0 | 9.7 | 0.00 | 0.00 | 0.00 | 28 | 1010.6 |
| 20260508230109 | 16 | 339 | 3.2 | 3.2 | 0.00 | 0.00 | 0.00 | 29 | 1010.7 |
| 20260508225607 | 16 | 236 | 3.2 | 3.2 | 0.00 | 0.00 | 0.00 | 28 | 1010.5 |
| 20260508225103 | 16 | 1 | 1.6 | 1.6 | 0.00 | 0.00 | 0.00 | 28 | 1010.6 |
| 20260508224601 | 16 | 2 | 1.6 | 1.6 | 0.00 | 0.00 | 0.00 | 29 | 1010.5 |
| 20260508224058 | 16 | 11 | 3.2 | 3.2 | 0.00 | 0.00 | 0.00 | 29 | 1010.7 |
| 20260508223556 | 16 | 289 | 1.6 | 3.2 | 0.00 | 0.00 | 0.00 | 28 | 1010.6 |
| 20260508223053 | 16 | 347 | 4.8 | 4.8 | 0.00 | 0.00 | 0.00 | 29 | 1010.7 |
| 20260508222550 | 17 | 199 | 6.4 | 9.7 | 0.00 | 0.00 | 0.00 | 27 | 1010.7 |
| 20260508222048 | 16 | 251 | 4.8 | 4.8 | 0.00 | 0.00 | 0.00 | 28 | 1010.8 |
| 20260508221544 | 16 | 292 | 6.4 | 8.0 | 0.00 | 0.00 | 0.00 | 28 | 1010.8 |
| 20260508221039 | 17 | 264 | 3.2 | 3.2 | 0.00 | 0.00 | 0.00 | 28 | 1010.9 |
| 20260508220536 | 17 | 7 | 3.2 | 3.2 | 0.00 | 0.00 | 0.00 | 28 | 1010.8 |
| 20260508220032 | 17 | 308 | 3.2 | 3.2 | 0.00 | 0.00 | 0.00 | 28 | 1010.8 |
| 20260508215530 | 17 | 339 | 3.2 | 3.2 | 0.00 | 0.00 | 0.00 | 28 | 1010.6 |
| 20260508215026 | 17 | 325 | 1.6 | 3.2 | 0.00 | 0.00 | 0.00 | 27 | 1010.7 |
| 20260508214524 | 17 | 223 | 8.0 | 11.3 | 0.00 | 0.00 | 0.00 | 26 | 1010.9 |
| 20260508214020 | 17 | 263 | 3.2 | 3.2 | 0.00 | 0.00 | 0.00 | 27 | 1010.6 |
| 20260508213518 | 17 | 230 | 6.4 | 9.7 | 0.00 | 0.00 | 0.00 | 26 | 1011.0 |
| 20260508213013 | 18 | 291 | 3.2 | 4.8 | 0.00 | 0.00 | 0.00 | 27 | 1010.9 |
| 20260508212510 | 18 | 287 | 1.6 | 1.6 | 0.00 | 0.00 | 0.00 | 26 | 1010.8 |
| 20260508212006 | 18 | 313 | 8.0 | 11.3 | 0.00 | 0.00 | 0.00 | 28 | 1011.0 |
| 20260508211502 | 17 | 351 | 1.6 | 1.6 | 0.00 | 0.00 | 0.00 | 27 | 1011.0 |
| 20260508210958 | 18 | 239 | 6.4 | 9.7 | 0.00 | 0.00 | 0.00 | 27 | 1011.0 |
| 20260508210455 | 18 | 35 | 0.0 | 0.0 | 0.00 | 0.00 | 0.00 | 28 | 1011.1 |
| 20260508205951 | 17 | 263 | 4.8 | 4.8 | 0.00 | 0.00 | 0.00 | 28 | 1011.0 |
| 20260508205449 | 17 | 218 | 4.8 | 4.8 | 0.00 | 0.00 | 0.00 | 28 | 1011.0 |
| 20260508204945 | 17 | 3 | 1.6 | 1.6 | 0.00 | 0.00 | 0.00 | 27 | 1011.2 |
| 20260508204442 | 17 | 332 | 1.6 | 3.2 | 0.00 | 0.00 | 0.00 | 26 | 1011.4 |
| 20260508203937 | 17 | 321 | 3.2 | 3.2 | 0.00 | 0.00 | 0.00 | 26 | 1011.2 |
| 20260508203434 | 17 | 269 | 4.8 | 4.8 | 0.00 | 0.00 | 0.00 | 28 | 1011.3 |
| 20260508202930 | 18 | 271 | 3.2 | 3.2 | 0.00 | 0.00 | 0.00 | 26 | 1011.4 |
| 20260508202428 | 17 | 205 | 4.8 | 4.8 | 0.00 | 0.00 | 0.00 | 26 | 1011.4 |
| 20260508201924 | 17 | 253 | 4.8 | 4.8 | 0.00 | 0.00 | 0.00 | 25 | 1011.6 |
| 20260508201421 | 17 | 304 | 4.8 | 4.8 | 0.00 | 0.00 | 0.00 | 27 | 1011.4 |
| 20260508200918 | 17 | 272 | 4.8 | 8.0 | 0.00 | 0.00 | 0.00 | 27 | 1011.6 |
| 20260508200414 | 18 | 351 | 1.6 | 3.2 | 0.00 | 0.00 | 0.00 | 27 | 1011.7 |
| 20260508195910 | 17 | 46 | 1.6 | 1.6 | 0.00 | 0.00 | 0.00 | 26 | 1011.9 |
| 20260508195407 | 17 | 265 | 6.4 | 9.7 | 0.00 | 0.00 | 0.00 | 26 | 1011.9 |
| 20260508194903 | 17 | 328 | 1.6 | 3.2 | 0.00 | 0.00 | 0.00 | 27 | 1012.2 |
| 20260508194400 | 18 | 17 | 3.2 | 3.2 | 0.00 | 0.00 | 0.00 | 27 | 1012.0 |
| 20260508193857 | 17 | 22 | 0.0 | 1.6 | 0.00 | 0.00 | 0.00 | 26 | 1012.0 |
| 20260508193354 | 17 | 274 | 4.8 | 4.8 | 0.00 | 0.00 | 0.00 | 27 | 1012.1 |
| 20260508192850 | 17 | 334 | 3.2 | 3.2 | 0.00 | 0.00 | 0.00 | 28 | 1012.3 |
| 20260508192347 | 17 | 340 | 1.6 | 3.2 | 0.00 | 0.00 | 0.00 | 27 | 1012.2 |
| 20260508191845 | 17 | 13 | 1.6 | 3.2 | 0.00 | 0.00 | 0.00 | 28 | 1012.2 |
| 20260508191342 | 17 | 220 | 4.8 | 8.0 | 0.00 | 0.00 | 0.00 | 28 | 1012.2 |
| 20260508190839 | 16 | 262 | 3.2 | 3.2 | 0.00 | 0.00 | 0.00 | 28 | 1012.2 |
| 20260508190335 | 17 | 297 | 3.2 | 3.2 | 0.00 | 0.00 | 0.00 | 28 | 1012.2 |
| 20260508185831 | 16 | 24 | 1.6 | 1.6 | 0.00 | 0.00 | 0.00 | 30 | 1012.3 |
| 20260508185329 | 16 | 350 | 1.6 | 1.6 | 0.00 | 0.00 | 0.00 | 30 | 1012.4 |
| 20260508184826 | 16 | 305 | 3.2 | 3.2 | 0.00 | 0.00 | 0.00 | 28 | 1012.4 |
| 20260508184324 | 16 | 237 | 4.8 | 4.8 | 0.00 | 0.00 | 0.00 | 28 | 1012.5 |
| 20260508183820 | 16 | 342 | 1.6 | 3.2 | 0.00 | 0.00 | 0.00 | 30 | 1012.5 |
| 20260508183317 | 16 | 215 | 8.0 | 9.7 | 0.00 | 0.00 | 0.00 | 28 | 1012.7 |
| 20260508182812 | 16 | 253 | 4.8 | 8.0 | 0.00 | 0.00 | 0.00 | 29 | 1012.6 |
| 20260508182310 | 16 | 258 | 4.8 | 4.8 | 0.00 | 0.00 | 0.00 | 29 | 1012.4 |
| 20260508181805 | 16 | 313 | 3.2 | 3.2 | 0.00 | 0.00 | 0.00 | 31 | 1012.7 |
| 20260508181302 | 16 | 0 | 0.0 | 1.6 | 0.00 | 0.00 | 0.00 | 30 | 1012.5 |
| 20260508180754 | 16 | 268 | 4.8 | 4.8 | 0.00 | 0.00 | 0.00 | 29 | 1012.8 |
| 20260508180250 | 16 | 212 | 8.0 | 9.7 | 0.00 | 0.00 | 0.00 | 29 | 1012.7 |
| 20260508175747 | 16 | 67 | 1.6 | 1.6 | 0.00 | 0.00 | 0.00 | 29 | 1012.9 |
| 20260508175243 | 16 | 306 | 4.8 | 9.7 | 0.00 | 0.00 | 0.00 | 30 | 1012.9 |
| 20260508174742 | 16 | 11 | 0.0 | 0.0 | 0.00 | 0.00 | 0.00 | 28 | 1012.7 |
| 20260508174239 | 16 | 35 | 1.6 | 1.6 | 0.00 | 0.00 | 0.00 | 31 | 1013.3 |
| 20260508173735 | 16 | 289 | 4.8 | 8.0 | 0.00 | 0.00 | 0.00 | 30 | 1013.1 |
| 20260508173231 | 16 | 342 | 3.2 | 4.8 | 0.00 | 0.00 | 0.00 | 31 | 1013.1 |
| 20260508172728 | 16 | 242 | 6.4 | 8.0 | 0.00 | 0.00 | 0.00 | 30 | 1013.3 |
| 20260508172225 | 16 | 267 | 8.0 | 11.3 | 0.00 | 0.00 | 0.00 | 30 | 1013.4 |
| 20260508171721 | 16 | 340 | 0.0 | 1.6 | 0.00 | 0.00 | 0.00 | 34 | 1013.3 |
| 20260508171217 | 16 | 217 | 11.3 | 16.1 | 0.00 | 0.00 | 0.00 | 33 | 1013.4 |
| 20260508170715 | 15 | 253 | 3.2 | 3.2 | 0.00 | 0.00 | 0.00 | 36 | 1013.4 |
| 20260508170212 | 16 | 289 | 3.2 | 3.2 | 0.00 | 0.00 | 0.00 | 35 | 1013.5 |
| 20260508165709 | 16 | 246 | 3.2 | 3.2 | 0.00 | 0.00 | 0.00 | 34 | 1013.8 |
| 20260508165206 | 16 | 344 | 4.8 | 4.8 | 0.00 | 0.00 | 0.00 | 35 | 1013.9 |
| 20260508164703 | 16 | 320 | 3.2 | 3.2 | 0.00 | 0.00 | 0.00 | 33 | 1013.9 |
| 20260508164159 | 15 | 278 | 3.2 | 4.8 | 0.00 | 0.00 | 0.00 | 33 | 1014.1 |
| 20260508163657 | 16 | 306 | 6.4 | 9.7 | 0.00 | 0.00 | 0.00 | 34 | 1014.0 |
| 20260508163154 | 15 | 240 | 8.0 | 8.0 | 0.00 | 0.00 | 0.00 | 32 | 1014.1 |
| 20260508162649 | 15 | 33 | 1.6 | 1.6 | 0.00 | 0.00 | 0.00 | 33 | 1014.1 |
| 20260508162148 | 15 | 49 | 1.6 | 1.6 | 0.00 | 0.00 | 0.00 | 34 | 1014.1 |
| 20260508161645 | 15 | 253 | 3.2 | 3.2 | 0.00 | 0.00 | 0.00 | 35 | 1013.9 |
| 20260508161142 | 15 | 315 | 3.2 | 3.2 | 0.00 | 0.00 | 0.00 | 32 | 1014.2 |
| 20260508160640 | 15 | 209 | 4.8 | 8.0 | 0.00 | 0.00 | 0.00 | 31 | 1014.2 |
| 20260508160137 | 15 | 340 | 3.2 | 4.8 | 0.00 | 0.00 | 0.00 | 34 | 1014.2 |
| 20260508155634 | 15 | 55 | 4.8 | 4.8 | 0.00 | 0.00 | 0.00 | 33 | 1014.3 |
| 20260508155131 | 15 | 36 | 1.6 | 1.6 | 0.00 | 0.00 | 0.00 | 33 | 1014.2 |
| 20260508154628 | 15 | 233 | 4.8 | 8.0 | 0.00 | 0.00 | 0.00 | 31 | 1014.5 |
| 20260508154124 | 15 | 247 | 6.4 | 9.7 | 0.00 | 0.00 | 0.00 | 33 | 1014.2 |
| 20260508153621 | 15 | 252 | 3.2 | 3.2 | 0.00 | 0.00 | 0.00 | 38 | 1014.4 |
| 20260508153118 | 14 | 25 | 0.0 | 0.0 | 0.00 | 0.00 | 0.00 | 38 | 1014.1 |
| 20260508152615 | 14 | 240 | 6.4 | 8.0 | 0.00 | 0.00 | 0.00 | 39 | 1014.5 |
| 20260508152110 | 13 | 37 | 0.0 | 1.6 | 0.00 | 0.00 | 0.00 | 38 | 1014.3 |
| 20260508151607 | 14 | 214 | 4.8 | 8.0 | 0.00 | 0.00 | 0.00 | 36 | 1014.3 |
| 20260508151104 | 15 | 230 | 4.8 | 4.8 | 0.00 | 0.00 | 0.00 | 36 | 1014.5 |
| 20260508150601 | 14 | 355 | 1.6 | 1.6 | 0.00 | 0.00 | 0.00 | 40 | 1014.4 |
| 20260508150057 | 13 | 334 | 3.2 | 3.2 | 0.00 | 0.00 | 0.00 | 40 | 1014.6 |
| 20260508145554 | 13 | 237 | 3.2 | 3.2 | 0.00 | 0.00 | 0.00 | 35 | 1014.7 |
| 20260508145050 | 13 | 314 | 1.6 | 3.2 | 0.00 | 0.00 | 0.00 | 40 | 1014.5 |
| 20260508144548 | 13 | 243 | 4.8 | 9.7 | 0.00 | 0.00 | 0.00 | 40 | 1014.7 |
| 20260508144045 | 13 | 217 | 6.4 | 8.0 | 0.00 | 0.00 | 0.00 | 40 | 1014.6 |
| 20260508143543 | 12 | 228 | 3.2 | 3.2 | 0.00 | 0.00 | 0.00 | 45 | 1014.6 |
| 20260508143039 | 12 | 220 | 8.0 | 12.9 | 0.00 | 0.00 | 0.00 | 43 | 1014.6 |
| 20260508142536 | 13 | 163 | 3.2 | 4.8 | 0.00 | 0.00 | 0.00 | 44 | 1014.7 |
| 20260508142032 | 13 | 332 | 3.2 | 3.2 | 0.00 | 0.00 | 0.00 | 46 | 1014.9 |
| 20260508141529 | 12 | 243 | 4.8 | 8.0 | 0.00 | 0.00 | 0.00 | 47 | 1014.7 |
| 20260508141027 | 12 | 230 | 1.6 | 3.2 | 0.00 | 0.00 | 0.00 | 47 | 1014.7 |
| 20260508140524 | 12 | 340 | 1.6 | 1.6 | 0.00 | 0.00 | 0.00 | 47 | 1014.8 |
| 20260508140020 | 13 | 212 | 1.6 | 3.2 | 0.00 | 0.00 | 0.00 | 48 | 1014.8 |
| 20260508135516 | 12 | 39 | 1.6 | 1.6 | 0.00 | 0.00 | 0.00 | 48 | 1014.9 |
| 20260508135012 | 13 | 217 | 4.8 | 8.0 | 0.00 | 0.00 | 0.00 | 50 | 1014.8 |
| 20260508134509 | 12 | 59 | 1.6 | 1.6 | 0.00 | 0.00 | 0.00 | 56 | 1014.8 |
| 20260508134006 | 12 | 51 | 0.0 | 1.6 | 0.00 | 0.00 | 0.00 | 54 | 1014.9 |
| 20260508133503 | 12 | 237 | 1.6 | 1.6 | 0.00 | 0.00 | 0.00 | 54 | 1014.9 |
| 20260508133000 | 13 | 74 | 0.0 | 1.6 | 0.00 | 0.00 | 0.00 | 54 | 1014.8 |
| 20260508132458 | 13 | 78 | 1.6 | 1.6 | 0.00 | 0.00 | 0.00 | 54 | 1014.9 |
| 20260508131954 | 12 | 31 | 0.0 | 0.0 | 0.00 | 0.00 | 0.00 | 59 | 1014.9 |
| 20260508131450 | 10 | 47 | 0.0 | 0.0 | 0.00 | 0.00 | 0.00 | 64 | 1015.0 |
| 20260508130947 | 10 | 231 | 3.2 | 3.2 | 0.00 | 0.00 | 0.00 | 63 | 1015.0 |
| 20260508130444 | 12 | 38 | 0.0 | 0.0 | 0.00 | 0.00 | 0.00 | 62 | 1015.0 |
| 20260508125939 | 10 | 44 | 0.0 | 0.0 | 0.00 | 0.00 | 0.00 | 65 | 1015.2 |
| 20260508125436 | 10 | 353 | 3.2 | 4.8 | 0.00 | 0.00 | 0.00 | 65 | 1015.2 |
| 20260508124934 | 9 | 349 | 1.6 | 1.6 | 0.00 | 0.00 | 0.00 | 68 | 1015.3 |
| 20260508124431 | 8 | 233 | 1.6 | 3.2 | 0.00 | 0.00 | 0.00 | 68 | 1015.3 |
| 20260508123929 | 8 | 32 | 0.0 | 1.6 | 0.00 | 0.00 | 0.00 | 68 | 1015.2 |
| 20260508123427 | 8 | 358 | 1.6 | 1.6 | 0.00 | 0.00 | 0.00 | 69 | 1015.2 |
| 20260508122923 | 8 | 353 | 1.6 | 1.6 | 0.00 | 0.00 | 0.00 | 69 | 1015.1 |
| 20260508122420 | 8 | 297 | 1.6 | 3.2 | 0.00 | 0.00 | 0.00 | 69 | 1015.0 |
| 20260508121917 | 9 | 216 | 1.6 | 3.2 | 0.00 | 0.00 | 0.00 | 66 | 1015.0 |
| 20260508121416 | 10 | 53 | 0.0 | 0.0 | 0.00 | 0.00 | 0.00 | 67 | 1015.0 |
| 20260508120913 | 9 | 51 | 1.6 | 1.6 | 0.00 | 0.00 | 0.00 | 67 | 1015.0 |
| 20260508120411 | 8 | 51 | 0.0 | 0.0 | 0.00 | 0.00 | 0.00 | 72 | 1014.9 |
| 20260508115908 | 7 | 36 | 0.0 | 0.0 | 0.00 | 0.00 | 0.00 | 78 | 1015.1 |
| 20260508115406 | 6 | 40 | 0.0 | 0.0 | 0.00 | 0.00 | 0.00 | 76 | 1014.8 |
| 20260508114902 | 7 | 38 | 0.0 | 1.6 | 0.00 | 0.00 | 0.00 | 73 | 1014.7 |
| 20260508114359 | 6 | 43 | 0.0 | 0.0 | 0.00 | 0.00 | 0.00 | 77 | 1014.8 |
| 20260508113855 | 6 | 39 | 0.0 | 0.0 | 0.00 | 0.00 | 0.00 | 79 | 1014.6 |
| 20260508113353 | 6 | 41 | 0.0 | 0.0 | 0.00 | 0.00 | 0.00 | 82 | 1014.7 |
| 20260508112850 | 5 | 39 | 0.0 | 0.0 | 0.00 | 0.00 | 0.00 | 89 | 1014.5 |
| 20260508112347 | 3 | 39 | 0.0 | 0.0 | 0.00 | 0.00 | 0.00 | 93 | 1014.6 |
| 20260508111843 | 3 | 38 | 0.0 | 0.0 | 0.00 | 0.00 | 0.00 | 94 | 1014.7 |
| 20260508111341 | 2 | 38 | 0.0 | 0.0 | 0.00 | 0.00 | 0.00 | 96 | 1014.6 |
| 20260508110838 | 1 | 37 | 0.0 | 0.0 | 0.00 | 0.00 | 0.00 | 97 | 1014.7 |
| 20260508110336 | 1 | 35 | 0.0 | 0.0 | 0.00 | 0.00 | 0.00 | 97 | 1014.6 |
| 20260508105835 | 0 | 35 | 0.0 | 0.0 | 0.00 | 0.00 | 0.00 | 97 | 1014.6 |
| 20260508105332 | 0 | 35 | 0.0 | 0.0 | 0.00 | 0.00 | 0.00 | 97 | 1014.5 |
| 20260508104829 | 0 | 35 | 0.0 | 0.0 | 0.00 | 0.00 | 0.00 | 97 | 1014.5 |
| 20260508104326 | 0 | 35 | 0.0 | 0.0 | 0.00 | 0.00 | 0.00 | 97 | 1014.3 |
| 20260508103823 | 0 | 35 | 0.0 | 0.0 | 0.00 | 0.00 | 0.00 | 97 | 1014.5 |
| 20260508103320 | 0 | 35 | 0.0 | 0.0 | 0.00 | 0.00 | 0.00 | 97 | 1014.5 |
| 20260508102818 | 0 | 35 | 0.0 | 0.0 | 0.00 | 0.00 | 0.00 | 97 | 1014.4 |
| 20260508102315 | 0 | 35 | 0.0 | 0.0 | 0.00 | 0.00 | 0.00 | 96 | 1014.5 |
| 20260508101812 | 0 | 35 | 0.0 | 0.0 | 0.00 | 0.00 | 0.00 | 97 | 1014.4 |
| 20260508101310 | 0 | 35 | 0.0 | 0.0 | 0.00 | 0.00 | 0.00 | 97 | 1014.5 |
| 20260508100807 | 0 | 35 | 0.0 | 0.0 | 0.00 | 0.00 | 0.00 | 96 | 1014.6 |
| 20260508100306 | 0 | 35 | 0.0 | 0.0 | 0.00 | 0.00 | 0.00 | 96 | 1014.5 |
| 20260508095801 | 0 | 35 | 0.0 | 0.0 | 0.00 | 0.00 | 0.00 | 96 | 1014.5 |
| 20260508095259 | 0 | 35 | 0.0 | 0.0 | 0.00 | 0.00 | 0.00 | 96 | 1014.5 |
| 20260508094755 | 0 | 35 | 0.0 | 0.0 | 0.00 | 0.00 | 0.00 | 96 | 1014.5 |
| 20260508094253 | 0 | 35 | 0.0 | 0.0 | 0.00 | 0.00 | 0.00 | 96 | 1014.6 |
| 20260508093750 | 0 | 35 | 0.0 | 0.0 | 0.00 | 0.00 | 0.00 | 96 | 1014.6 |
| 20260508093247 | 0 | 35 | 0.0 | 0.0 | 0.00 | 0.00 | 0.00 | 96 | 1014.6 |
| 20260508092744 | 0 | 35 | 0.0 | 0.0 | 0.00 | 0.00 | 0.00 | 95 | 1014.9 |
| 20260508092242 | 0 | 35 | 0.0 | 0.0 | 0.00 | 0.00 | 0.00 | 95 | 1014.7 |